Weather History for Ionia, MI

Change the Weather History Date:

Monday, October 29, 2012

  Actual Average (KGRR) Record (KGRR)
Temperature  
Mean Temperature 40 °F 47 °F  
Max Temperature 45 °F 55 °F 77 °F (1901)
Min Temperature 34 °F 38 °F 20 °F (1969)
Degree Days  
Heating Degree Days 26 18  
Month to date heating degree days 401  
Since 1 July heating degree days 553  
Cooling Degree Days 0 0  
Month to date cooling degree days 4  
Year to date cooling degree days 696  
Moisture  
Dew Point 22 °F    
Average Humidity 50    
Maximum Humidity 72    
Minimum Humidity 31    
Precipitation  
Precipitation 0.00 in 0.11 in 1.02 in (1996)
Month to date precipitation 3.05  
Year to date precipitation 32.05  
Snow  
Snow 0.00 in 0.00 in 1.60 in (1906)
Month to date snowfall 0.4  
Since 1 July snowfall 0.4  
Since 1 September snowfall 0.4  
Snow Depth -    
Sea Level Pressure  
Sea Level Pressure 30.09 in    
Wind  
Wind Speed 11 mph (North)    
Max Wind Speed 21 mph    
Max Gust Speed 32 mph    
Visibility 10 miles    
Events      
T = Trace of Precipitation, MM = Missing Value Source: NWS Daily Summary

Daily Weather History Graph

Daily Weather History Graph

Search for Another Location

Airport:

Trip Planner

Search our weather history database for the weather conditions in past years. The results will help you decide how hot, cold, wet, or windy it might be!

Date:

Astronomy

Oct. 29, 2012 Rise Set
Actual Time 8:11 AM EDT 6:35 PM EDT
Civil Twilight 7:42 AM EDT 7:05 PM EDT
Nautical Twilight 7:08 AM EDT 7:38 PM EDT
Astronomical Twilight 6:35 AM EDT 8:11 PM EDT
Moon 6:26 PM EDT (10/29) 8:01 AM EDT (10/29)
Length of Visible Light 11h 22m
Length of Day
10h 24m
Full, 100% of the Moon is Illuminated
Oct 29
Full
Oct 29
Full
Nov 6
Last Quarter
Nov 13
New
Nov 20
First Quarter

Hourly Weather History & Observations

Time (EDT) Temp. Windchill Dew Point Humidity Pressure Visibility Wind Dir Wind Speed Gust Speed Precip Events Conditions
12:14 AM 37.4 °F 32.8 °F 24.8 °F 60% 30.19 in 10.0 mi North 5.8 mph - N/A   Clear
12:54 AM 36.9 °F 30.7 °F 25.7 °F 64% 30.19 in 10.0 mi North 8.1 mph - N/A   Clear
1:14 AM 36.9 °F 33.1 °F 25.7 °F 64% 30.18 in 10.0 mi North 4.6 mph - N/A   Clear
1:34 AM 36.9 °F 30.7 °F 26.1 °F 65% 30.18 in 10.0 mi North 8.1 mph - N/A   Clear
1:54 AM 37.0 °F 29.8 °F 26.4 °F 65% 30.18 in 10.0 mi North 10.4 mph 17.3 mph N/A   Clear
2:14 AM 36.9 °F 30.7 °F 26.8 °F 67% 30.18 in 10.0 mi North 8.1 mph - N/A   Clear
2:34 AM 36.5 °F 30.3 °F 27.3 °F 69% 30.17 in 10.0 mi North 8.1 mph - N/A   Clear
2:54 AM 36.5 °F 30.3 °F 27.3 °F 69% 30.17 in 10.0 mi North 8.1 mph - N/A   Clear
3:14 AM 36.0 °F 28.0 °F 27.5 °F 71% 30.17 in 10.0 mi North 11.5 mph 16.1 mph N/A   Clear
3:34 AM 36.5 °F 29.7 °F 27.5 °F 70% 30.17 in 10.0 mi North 9.2 mph 17.3 mph N/A   Clear
3:54 AM 36.0 °F 29.0 °F 27.5 °F 71% 30.17 in 10.0 mi North 9.2 mph 16.1 mph N/A   Clear
4:14 AM 35.8 °F 27.8 °F 27.3 °F 71% 30.17 in 10.0 mi North 11.5 mph 16.1 mph N/A   Clear
4:34 AM 35.6 °F 27.5 °F 27.0 °F 71% 30.17 in 10.0 mi North 11.5 mph 16.1 mph N/A   Clear
4:54 AM 35.6 °F 28.0 °F 26.8 °F 70% 30.17 in 10.0 mi North 10.4 mph - N/A   Clear
5:14 AM 35.1 °F 28.6 °F 26.6 °F 71% 30.17 in 10.0 mi North 8.1 mph - N/A   Clear
5:34 AM 34.7 °F 26.9 °F 26.6 °F 72% 30.17 in 10.0 mi North 10.4 mph - N/A   Clear
5:54 AM 35.1 °F 27.4 °F 26.4 °F 71% 30.17 in 10.0 mi North 10.4 mph 16.1 mph N/A   Clear
6:14 AM 35.4 °F 29.0 °F 25.9 °F 68% 30.17 in 10.0 mi North 8.1 mph 18.4 mph N/A   Clear
7:14 AM 35.4 °F 28.4 °F 24.8 °F 65% 30.17 in 10.0 mi North 9.2 mph - N/A   Clear
7:34 AM 35.2 °F 28.1 °F 24.6 °F 65% 30.17 in 10.0 mi North 9.2 mph - N/A   Clear
7:54 AM 35.6 °F 28.6 °F 23.7 °F 62% 30.17 in 10.0 mi North 9.2 mph 16.1 mph N/A   Clear
8:14 AM 35.4 °F 29.0 °F 23.0 °F 61% 30.17 in 10.0 mi North 8.1 mph 18.4 mph N/A   Clear
8:34 AM 35.4 °F 29.7 °F 22.5 °F 59% 30.17 in 10.0 mi North 6.9 mph 16.1 mph N/A   Clear
8:54 AM 35.4 °F 28.4 °F 22.5 °F 59% 30.16 in 10.0 mi North 9.2 mph - N/A   Clear
9:14 AM 36.5 °F 28.2 °F 21.7 °F 55% 30.16 in 10.0 mi North 12.7 mph 18.4 mph N/A   Clear
9:34 AM 37.4 °F 30.8 °F 21.0 °F 52% 30.16 in 10.0 mi North 9.2 mph 20.7 mph N/A   Clear
9:54 AM 37.8 °F 31.8 °F 21.2 °F 51% 30.15 in 10.0 mi North 8.1 mph 17.3 mph N/A   Clear
10:34 AM 38.8 °F 31.2 °F 20.7 °F 48% 30.15 in 10.0 mi North 12.7 mph 26.5 mph N/A   Clear
10:54 AM 39.7 °F 32.3 °F 20.7 °F 46% 30.15 in 10.0 mi North 12.7 mph 20.7 mph N/A   Clear
11:14 AM 40.3 °F 33.0 °F 20.5 °F 45% 30.15 in 10.0 mi North 12.7 mph 21.9 mph N/A   Clear
11:34 AM 41.2 °F 32.4 °F 20.1 °F 43% 30.15 in 10.0 mi NNE 18.4 mph 25.3 mph N/A   Clear
11:54 AM 41.5 °F 32.9 °F 19.9 °F 42% 30.15 in 10.0 mi North 18.4 mph 25.3 mph N/A   Clear
12:14 PM 41.9 °F 32.8 °F 19.4 °F 41% 30.14 in 10.0 mi NNE 20.7 mph 28.8 mph N/A   Clear
12:34 PM 42.3 °F 33.6 °F 18.7 °F 39% 30.13 in 10.0 mi North 19.6 mph 26.5 mph N/A   Clear
12:54 PM 42.8 °F 35.1 °F 18.1 °F 37% 30.12 in 10.0 mi North 16.1 mph 27.6 mph N/A   Clear
2:14 PM 44.1 °F 36.2 °F 16.9 °F 34% 30.09 in 10.0 mi North 18.4 mph 25.3 mph N/A   Clear
2:34 PM 44.6 °F 36.4 °F 17.8 °F 34% 30.09 in 10.0 mi North 20.7 mph 26.5 mph N/A   Clear
2:54 PM 45.0 °F 37.9 °F 17.4 °F 33% 30.08 in 10.0 mi North 16.1 mph 26.5 mph N/A   Clear
3:14 PM 45.5 °F 38.6 °F 17.8 °F 33% 30.07 in 10.0 mi North 16.1 mph 23.0 mph N/A   Clear
3:34 PM 45.7 °F 38.8 °F 18.7 °F 34% 30.06 in 10.0 mi North 16.1 mph 26.5 mph N/A   Clear
4:14 PM 45.7 °F 38.0 °F 16.7 °F 31% 30.06 in 10.0 mi North 19.6 mph 29.9 mph N/A   Clear
4:34 PM 45.7 °F 37.8 °F 16.3 °F 31% 30.05 in 10.0 mi North 20.7 mph 29.9 mph N/A   Clear
4:54 PM 45.9 °F 39.7 °F 16.5 °F 31% 30.04 in 10.0 mi North 13.8 mph 27.6 mph N/A   Clear
5:14 PM 45.5 °F 38.9 °F 17.1 °F 32% 30.04 in 10.0 mi North 15.0 mph 21.9 mph N/A   Clear
5:34 PM 45.3 °F 37.6 °F 16.7 °F 32% 30.02 in 10.0 mi North 19.6 mph 26.5 mph N/A   Clear
5:54 PM 44.8 °F 39.0 °F 17.4 °F 33% 30.02 in 10.0 mi North 11.5 mph 27.6 mph N/A   Clear
6:14 PM 44.6 °F 40.2 °F 16.3 °F 32% 30.02 in 10.0 mi North 8.1 mph 26.5 mph N/A   Clear
6:34 PM 44.1 °F 36.8 °F 16.2 °F 33% 30.01 in 10.0 mi North 16.1 mph 24.2 mph N/A   Clear
6:54 PM 43.7 °F 36.0 °F 16.7 °F 34% 30.01 in 10.0 mi North 17.3 mph 24.2 mph N/A   Clear
7:14 PM 43.3 °F 36.8 °F 18.1 °F 36% 30.00 in 10.0 mi NNW 12.7 mph 26.5 mph N/A   Clear
7:34 PM 43.2 °F 36.2 °F 18.5 °F 37% 30.00 in 10.0 mi North 13.8 mph 25.3 mph N/A   Clear
7:54 PM 42.8 °F 35.4 °F 19.4 °F 39% 29.99 in 10.0 mi North 15.0 mph 28.8 mph N/A   Clear
8:14 PM 41.9 °F 34.6 °F 20.1 °F 42% 29.98 in 10.0 mi North 13.8 mph 19.6 mph N/A   Clear
8:34 PM 42.1 °F 33.9 °F 20.5 °F 42% 29.98 in 10.0 mi North 17.3 mph 31.1 mph N/A   Clear
8:54 PM 42.1 °F 33.6 °F 20.8 °F 43% 29.97 in 10.0 mi North 18.4 mph 26.5 mph N/A   Clear
9:14 PM 41.9 °F 34.0 °F 21.0 °F 43% 29.96 in 10.0 mi North 16.1 mph 26.5 mph N/A   Clear
9:34 PM 41.7 °F 33.1 °F 21.2 °F 44% 29.95 in 10.0 mi North 18.4 mph 24.2 mph N/A   Clear
9:54 PM 41.4 °F 32.1 °F 20.8 °F 44% 29.94 in 10.0 mi North 20.7 mph 32.2 mph N/A   Clear
10:14 PM 41.2 °F 33.0 °F 21.2 °F 45% 29.93 in 10.0 mi North 16.1 mph 26.5 mph N/A   Clear
10:34 PM 41.2 °F 33.4 °F 21.2 °F 45% 29.92 in 10.0 mi North 15.0 mph 23.0 mph N/A   Clear
11:14 PM 40.6 °F 32.0 °F 21.4 °F 46% 29.89 in 10.0 mi North 17.3 mph 27.6 mph N/A   Clear
11:34 PM 40.5 °F 32.5 °F 21.7 °F 47% 29.88 in 10.0 mi North 15.0 mph 24.2 mph N/A   Clear
11:54 PM 40.3 °F 32.6 °F 22.1 °F 48% 29.86 in 10.0 mi North 13.8 mph 28.8 mph N/A   Clear